BHS291 MYNN-KFLL

Flight info

Callsign BHS291
Flight time N/A
Altitude 20000
Route PEACH OLAHS3
Aircraft B737/M-SDE2E3FGHIRWXY/LB1

Departure

Time 2026-05-04 18:13
Airport Lynden Pindling International Airport (MYNN)

Arrival

Time N/A
Airport Fort Lauderdale Hollywood International Airport (KFLL)
Time Latitude Longitude Altitude Speed Heading
2026-05-04 17:39 25.05056 -77.46846 16 ft 0 kts 347°
2026-05-04 17:55 25.05051 -77.46845 17 ft 2 kts 347°
2026-05-04 17:56 25.05033 -77.46840 17 ft 3 kts 336°
2026-05-04 17:56 25.05016 -77.46829 17 ft 3 kts 313°
2026-05-04 17:56 25.05007 -77.46812 18 ft 3 kts 263°
2026-05-04 17:56 25.05009 -77.46802 16 ft 1 kts 245°
2026-05-04 17:57 25.05010 -77.46800 16 ft 0 kts 245°
2026-05-04 18:06 25.05009 -77.46803 16 ft 3 kts 245°
2026-05-04 18:06 25.04982 -77.46868 16 ft 15 kts 245°
2026-05-04 18:06 25.04909 -77.46943 16 ft 15 kts 207°
2026-05-04 18:07 25.04816 -77.46903 19 ft 16 kts 135°
2026-05-04 18:07 25.04730 -77.46808 18 ft 19 kts 135°
2026-05-04 18:07 25.04632 -77.46700 18 ft 21 kts 136°
2026-05-04 18:07 25.04523 -77.46583 17 ft 23 kts 134°
2026-05-04 18:08 25.04405 -77.46451 19 ft 25 kts 135°
2026-05-04 18:08 25.04283 -77.46314 16 ft 25 kts 134°
2026-05-04 18:08 25.04165 -77.46182 17 ft 23 kts 135°
2026-05-04 18:08 25.04052 -77.46057 16 ft 23 kts 135°
2026-05-04 18:09 25.03832 -77.45812 17 ft 23 kts 135°
2026-05-04 18:09 25.03608 -77.45566 18 ft 23 kts 135°
2026-05-04 18:10 25.03492 -77.45436 16 ft 24 kts 135°
2026-05-04 18:10 25.03374 -77.45306 17 ft 24 kts 135°
2026-05-04 18:10 25.03253 -77.45188 16 ft 23 kts 157°
2026-05-04 18:10 25.03183 -77.45185 18 ft 0 kts 188°
2026-05-04 18:11 25.03171 -77.45187 18 ft 4 kts 188°
2026-05-04 18:11 25.03134 -77.45193 19 ft 7 kts 189°
2026-05-04 18:12 25.03086 -77.45227 20 ft 10 kts 255°
2026-05-04 18:12 25.03122 -77.45281 19 ft 6 kts 314°
2026-05-04 18:12 25.03161 -77.45325 20 ft 23 kts 314°
2026-05-04 18:12 25.03453 -77.45651 17 ft 95 kts 315°
2026-05-04 18:13 25.04060 -77.46322 21 ft 149 kts 316°
2026-05-04 18:13 25.04840 -77.47175 240 ft 178 kts 316°
2026-05-04 18:13 25.06799 -77.48997 1620 ft 191 kts 323°
2026-05-04 18:14 25.07905 -77.49842 2322 ft 201 kts 323°
2026-05-04 18:14 25.09150 -77.50788 2615 ft 234 kts 323°
2026-05-04 18:14 25.10563 -77.51871 3143 ft 256 kts 323°
2026-05-04 18:15 25.13522 -77.54150 4956 ft 263 kts 322°
2026-05-04 18:15 25.16567 -77.56518 6727 ft 273 kts 322°
2026-05-04 18:15 25.18090 -77.57708 7772 ft 270 kts 322°
2026-05-04 18:16 25.19630 -77.58912 8796 ft 273 kts 321°
2026-05-04 18:16 25.21187 -77.60132 9826 ft 275 kts 321°
2026-05-04 18:16 25.22761 -77.61368 10591 ft 286 kts 321°
2026-05-04 18:17 25.26323 -77.64177 11204 ft 335 kts 321°
2026-05-04 18:17 25.28223 -77.65669 11767 ft 337 kts 321°
2026-05-04 18:17 25.32085 -77.68701 11949 ft 342 kts 321°
2026-05-04 18:18 25.34018 -77.70220 11961 ft 341 kts 321°
2026-05-04 18:18 25.35947 -77.71738 11958 ft 340 kts 321°
2026-05-04 18:18 25.37850 -77.73237 11961 ft 340 kts 321°
2026-05-04 18:18 25.39776 -77.74755 11961 ft 340 kts 320°
2026-05-04 18:19 25.42949 -77.78485 11969 ft 333 kts 297°
2026-05-04 18:19 25.43843 -77.80854 12561 ft 334 kts 285°
2026-05-04 18:19 25.44447 -77.83323 13573 ft 332 kts 282°
2026-05-04 18:20 25.44976 -77.85824 14419 ft 334 kts 281°
2026-05-04 18:20 25.45492 -77.88347 15172 ft 339 kts 281°
2026-05-04 18:20 25.46021 -77.90909 15915 ft 344 kts 281°
2026-05-04 18:20 25.46565 -77.93500 16657 ft 348 kts 281°
2026-05-04 18:21 25.47117 -77.96089 17382 ft 353 kts 281°
2026-05-04 18:21 25.47689 -77.98748 18099 ft 357 kts 281°
2026-05-04 18:21 25.48270 -78.01433 18762 ft 360 kts 281°
2026-05-04 18:21 25.48854 -78.04117 19464 ft 359 kts 281°
2026-05-04 18:22 25.49433 -78.06783 19830 ft 354 kts 281°
2026-05-04 18:22 25.50008 -78.09431 19971 ft 355 kts 281°
2026-05-04 18:22 25.50584 -78.12087 20000 ft 355 kts 281°
2026-05-04 18:22 25.51160 -78.14747 20003 ft 356 kts 281°
2026-05-04 18:23 25.51736 -78.17408 20016 ft 356 kts 281°
2026-05-04 18:23 25.52313 -78.20075 20009 ft 356 kts 281°
2026-05-04 18:23 25.52889 -78.22745 20011 ft 357 kts 281°
2026-05-04 18:23 25.53466 -78.25416 20008 ft 357 kts 281°
2026-05-04 18:24 25.54041 -78.28054 20007 ft 357 kts 281°
2026-05-04 18:24 25.54625 -78.30718 20004 ft 357 kts 281°
2026-05-04 18:24 25.55209 -78.33391 20007 ft 356 kts 281°
2026-05-04 18:24 25.55791 -78.36055 20004 ft 356 kts 281°
2026-05-04 18:25 25.56372 -78.38718 20003 ft 356 kts 281°
2026-05-04 18:25 25.56952 -78.41378 20005 ft 355 kts 281°
2026-05-04 18:25 25.57530 -78.44037 20009 ft 355 kts 281°
2026-05-04 18:25 25.58108 -78.46697 20002 ft 355 kts 281°
2026-05-04 18:26 25.58679 -78.49325 20004 ft 355 kts 281°
2026-05-04 18:26 25.59255 -78.51979 20011 ft 355 kts 281°
2026-05-04 18:26 25.59832 -78.54642 20008 ft 355 kts 281°
2026-05-04 18:26 25.60408 -78.57301 20006 ft 355 kts 281°
2026-05-04 18:27 25.60984 -78.59966 20011 ft 355 kts 281°
2026-05-04 18:27 25.61559 -78.62626 20010 ft 355 kts 281°
2026-05-04 18:27 25.62133 -78.65287 20006 ft 355 kts 281°
2026-05-04 18:27 25.62704 -78.67933 20012 ft 355 kts 281°
2026-05-04 18:28 25.63281 -78.70607 20008 ft 355 kts 281°
2026-05-04 18:28 25.63856 -78.73279 20009 ft 356 kts 281°
2026-05-04 18:28 25.64178 -78.74777 20008 ft 356 kts 281°
2026-05-04 18:36 25.64479 -78.76176 20010 ft 356 kts 281°
2026-05-04 18:36 25.65053 -78.78846 20011 ft 356 kts 281°
2026-05-04 18:36 25.65625 -78.81508 20006 ft 356 kts 281°
2026-05-04 18:37 25.66194 -78.84160 19998 ft 348 kts 281°
2026-05-04 18:37 25.66737 -78.86686 19995 ft 337 kts 281°
2026-05-04 18:37 25.67275 -78.89196 20003 ft 332 kts 281°
2026-05-04 18:37 25.67807 -78.91689 20011 ft 333 kts 281°
2026-05-04 18:38 25.68339 -78.94185 19822 ft 337 kts 281°
2026-05-04 18:38 25.68880 -78.96721 19465 ft 336 kts 281°
2026-05-04 18:38 25.69420 -78.99251 18994 ft 335 kts 281°
2026-05-04 18:38 25.69953 -79.01750 18487 ft 332 kts 281°
2026-05-04 18:39 25.70482 -79.04230 17913 ft 330 kts 280°
2026-05-04 18:39 25.70999 -79.06660 17356 ft 327 kts 280°
2026-05-04 18:39 25.71523 -79.09126 16801 ft 323 kts 281°
2026-05-04 18:39 25.72030 -79.11511 16282 ft 320 kts 281°
2026-05-04 18:40 25.72536 -79.13896 15765 ft 317 kts 281°
2026-05-04 18:40 25.73038 -79.16264 15262 ft 314 kts 281°
2026-05-04 18:40 25.73534 -79.18609 14756 ft 311 kts 281°
2026-05-04 18:40 25.74024 -79.20926 14262 ft 308 kts 281°
2026-05-04 18:41 25.74513 -79.23236 13759 ft 306 kts 281°
2026-05-04 18:41 25.74997 -79.25526 13210 ft 304 kts 281°
2026-05-04 18:41 25.75477 -79.27799 12679 ft 301 kts 281°
2026-05-04 18:41 25.75987 -79.30047 12170 ft 299 kts 283°
2026-05-04 18:42 25.76564 -79.32254 11668 ft 297 kts 284°
2026-05-04 18:42 25.77148 -79.34414 11184 ft 295 kts 285°
2026-05-04 18:42 25.77735 -79.36581 10697 ft 293 kts 285°
2026-05-04 18:42 25.78315 -79.38738 10352 ft 287 kts 285°
2026-05-04 18:43 25.78868 -79.40806 10203 ft 274 kts 285°
2026-05-04 18:43 25.79396 -79.42788 10081 ft 261 kts 285°
2026-05-04 18:43 25.79900 -79.44685 9855 ft 255 kts 285°
2026-05-04 18:43 25.80388 -79.46535 9501 ft 252 kts 285°
2026-05-04 18:44 25.80875 -79.48379 9141 ft 251 kts 285°
2026-05-04 18:44 25.81039 -79.49002 9023 ft 251 kts 285°
2026-05-04 18:44 25.81852 -79.52083 8433 ft 249 kts 285°
2026-05-04 18:44 25.82338 -79.53926 8074 ft 248 kts 285°
2026-05-04 18:45 25.82821 -79.55762 7731 ft 248 kts 285°
2026-05-04 18:45 25.83297 -79.57569 7386 ft 247 kts 285°
2026-05-04 18:45 25.83778 -79.59398 7037 ft 247 kts 286°
2026-05-04 18:45 25.84340 -79.61195 6684 ft 246 kts 291°
2026-05-04 18:46 25.85006 -79.62947 6326 ft 247 kts 293°
2026-05-04 18:46 25.85690 -79.64690 6056 ft 244 kts 295°
2026-05-04 18:46 25.86416 -79.66368 6017 ft 239 kts 296°
2026-05-04 18:46 25.87143 -79.68022 6021 ft 240 kts 296°
2026-05-04 18:47 25.87883 -79.69723 6032 ft 251 kts 296°
2026-05-04 18:47 25.88643 -79.71482 6027 ft 258 kts 296°
2026-05-04 18:47 25.89422 -79.73291 6019 ft 261 kts 295°
2026-05-04 18:47 25.90198 -79.75104 6006 ft 259 kts 295°
2026-05-04 18:48 25.90967 -79.76905 6012 ft 257 kts 295°
2026-05-04 18:48 25.91735 -79.78708 6013 ft 258 kts 295°
2026-05-04 18:48 25.92494 -79.80487 6012 ft 260 kts 296°
2026-05-04 18:48 25.93265 -79.82298 6005 ft 258 kts 296°
2026-05-04 18:49 25.94027 -79.84089 6001 ft 254 kts 296°
2026-05-04 18:49 25.94775 -79.85848 6009 ft 249 kts 296°
2026-05-04 18:49 25.95510 -79.87574 6014 ft 247 kts 296°
2026-05-04 18:49 25.96245 -79.89304 6024 ft 248 kts 296°
2026-05-04 18:50 25.96981 -79.91034 6020 ft 247 kts 296°
2026-05-04 18:50 25.97715 -79.92763 6024 ft 247 kts 296°
2026-05-04 18:50 25.98203 -79.93909 6029 ft 248 kts 296°
2026-05-04 18:50 25.99016 -79.95616 6028 ft 251 kts 306°
2026-05-04 18:51 26.00115 -79.97098 6030 ft 252 kts 312°
2026-05-04 18:51 26.01299 -79.98522 6053 ft 251 kts 313°
2026-05-04 18:51 26.02500 -79.99951 6030 ft 254 kts 313°
2026-05-04 18:51 26.03698 -80.01390 6039 ft 255 kts 313°
2026-05-04 18:52 26.04902 -80.02849 6030 ft 257 kts 312°
2026-05-04 18:52 26.06112 -80.04327 6029 ft 259 kts 311°
2026-05-04 18:52 26.07325 -80.05815 6034 ft 259 kts 311°
2026-05-04 18:52 26.08536 -80.07306 6040 ft 261 kts 312°
2026-05-04 18:53 26.09756 -80.08814 6053 ft 263 kts 312°
2026-05-04 18:53 26.10978 -80.10324 6046 ft 263 kts 312°
2026-05-04 18:53 26.12192 -80.11824 6030 ft 260 kts 311°
2026-05-04 18:53 26.13393 -80.13310 6017 ft 256 kts 311°
2026-05-04 18:54 26.14509 -80.14827 6022 ft 253 kts 299°
2026-05-04 18:54 26.15046 -80.16661 5970 ft 252 kts 278°
2026-05-04 18:54 26.15134 -80.18591 5875 ft 255 kts 271°
2026-05-04 18:54 26.15122 -80.20577 5756 ft 257 kts 270°
2026-05-04 18:55 26.15098 -80.22581 5668 ft 261 kts 271°
2026-05-04 18:55 26.15078 -80.26671 5459 ft 266 kts 271°
2026-05-04 18:55 26.15080 -80.28724 5346 ft 265 kts 271°
2026-05-04 18:56 26.15085 -80.30773 5239 ft 264 kts 272°
2026-05-04 18:56 26.15092 -80.32800 5120 ft 260 kts 272°
2026-05-04 18:56 26.15093 -80.34806 4954 ft 261 kts 269°
2026-05-04 18:56 26.14600 -80.36762 4657 ft 270 kts 240°
2026-05-04 18:57 26.13285 -80.38249 4377 ft 272 kts 211°
2026-05-04 18:57 26.11508 -80.38872 4098 ft 268 kts 182°
2026-05-04 18:57 26.09683 -80.38791 3834 ft 265 kts 174°
2026-05-04 18:57 26.07852 -80.38617 3556 ft 265 kts 173°
2026-05-04 18:58 26.06050 -80.38437 3505 ft 254 kts 173°
2026-05-04 18:58 26.04328 -80.38258 3488 ft 244 kts 173°
2026-05-04 18:58 26.02656 -80.38083 3482 ft 242 kts 173°
2026-05-04 18:58 26.00976 -80.37900 3473 ft 243 kts 173°